Location: ???????
(54.6339°N, 39.4245°E)
Time: 13:24:19
(UTC+00:00)

Cosmos 2237 - Pass Details

Date: 19 May 2025
Orbit: 847 x 854 km, 70.8° (Epoch: 19 June)

Event Time Altitude Azimuth Distance (km) Brightness Sun altitude
Rises 19:23:08 0° 326° (NW) 3,424 9.5 -11.4°
Reaches altitude 10° 19:25:37 10° 329° (NNW) 2,485 8.2 -11.6°
Maximum altitude 19:31:19 69° 53° (NE) 912 4.4 -11.9°
Enters shadow 19:36:07 15° 135° (SE) 2,152 5.7 -12.2°
